BEIDOU-3 M6

Last updated on Wed May 15 2019 03:07:46 GMT+0000 (Coordinated Universal Time)

1 43208U 18018B 19134.47662884 .00000096 00000-0 00000+0 0 9992 2 43208 55.0590 149.7982 0010768 292.7842 67.1515 1.86231886 8498
UTC large
Height (km)
Speed (km/s)
/
Latitude / Longitude
Inclination (degrees)
Orbital Period (minutes)
Azimuth
Elevation
Range (km)
Doppler Factor

Next 0 passes for location: London (51.5072 / 0.1276)

Sorry there are no passes over London.